Stündliche Wetter Otoka

Heute, 15 April, Donnerstag

Zeit Temperatur Niederschläge Wind Luftdruck Luftfeuchtigkeit
00:00 +6°C° 0 mm 4 m/S 751 mmHg 91%
01:00 +6°C° 0 mm 4 m/S 751 mmHg 91%
02:00 +5°C° 0 mm 3 m/S 752 mmHg 90%
03:00 +5°C° 0 mm 4 m/S 752 mmHg 90%
04:00 +5°C° 0 mm 4 m/S 752 mmHg 89%
05:00 +4°C° 0 mm 4 m/S 752 mmHg 88%
06:00 +5°C° 0 mm 4 m/S 752 mmHg 85%
07:00 +5°C° 0 mm 4 m/S 752 mmHg 82%
08:00 +6°C° 0 mm 4 m/S 753 mmHg 79%
09:00 +6°C° 0 mm 5 m/S 753 mmHg 77%
10:00 +7°C° 0 mm 5 m/S 753 mmHg 75%
11:00 +7°C° 0 mm 5 m/S 753 mmHg 74%
12:00 +7°C° 0 mm 5 m/S 753 mmHg 72%
13:00 +7°C° 0 mm 5 m/S 753 mmHg 71%
14:00 +7°C° 0 mm 5 m/S 753 mmHg 70%
15:00 +7°C° 0 mm 5 m/S 754 mmHg 71%
16:00 +7°C° 0 mm 5 m/S 754 mmHg 72%
17:00 +6°C° 0 mm 5 m/S 754 mmHg 73%
18:00 +6°C° 0 mm 5 m/S 754 mmHg 74%
19:00 +6°C° 0 mm 5 m/S 754 mmHg 75%
20:00 +5°C° 0 mm 5 m/S 754 mmHg 76%
21:00 +5°C° 0 mm 5 m/S 754 mmHg 77%
22:00 +5°C° 0 mm 5 m/S 754 mmHg 78%
23:00 +3°C° 0 mm 5 m/S 754 mmHg 78%

Morgen, 16 April, Freitag

Zeit Temperatur Niederschläge Wind Luftdruck Luftfeuchtigkeit
00:00 +3°C° 0 mm 5 m/S 754 mmHg 79%
01:00 +3°C° 0 mm 5 m/S 754 mmHg 80%
02:00 +2°C° 0 mm 5 m/S 754 mmHg 81%
03:00 +2°C° 0 mm 5 m/S 755 mmHg 82%
04:00 +3°C° 0 mm 4 m/S 755 mmHg 82%
05:00 +1°C° 0 mm 4 m/S 755 mmHg 83%
06:00 +3°C° 0 mm 4 m/S 755 mmHg 79%
07:00 +3°C° 0 mm 5 m/S 755 mmHg 75%
08:00 +5°C° 0 mm 5 m/S 756 mmHg 72%
09:00 +6°C° 0 mm 5 m/S 756 mmHg 68%
10:00 +7°C° 0 mm 5 m/S 756 mmHg 64%
11:00 +8°C° 0 mm 5 m/S 756 mmHg 60%
12:00 +9°C° 0 mm 5 m/S 756 mmHg 58%
13:00 +10°C° 0 mm 5 m/S 756 mmHg 55%
14:00 +10°C° 0 mm 5 m/S 756 mmHg 53%
15:00 +10°C° 0 mm 5 m/S 756 mmHg 52%
16:00 +10°C° 0 mm 5 m/S 756 mmHg 52%
17:00 +9°C° 0 mm 5 m/S 756 mmHg 51%
18:00 +8°C° 0 mm 5 m/S 756 mmHg 54%
19:00 +7°C° 0 mm 4 m/S 756 mmHg 56%
20:00 +6°C° 0 mm 4 m/S 757 mmHg 58%
21:00 +5°C° 0 mm 4 m/S 757 mmHg 60%
22:00 +5°C° 0 mm 4 m/S 757 mmHg 63%
23:00 +4°C° 0 mm 4 m/S 757 mmHg 65%

übermorgen, 17 April, Samstag

Zeit Temperatur Niederschläge Wind Luftdruck Luftfeuchtigkeit
00:00 +4°C° 0 mm 4 m/S 757 mmHg 67%
01:00 +3°C° 0 mm 4 m/S 757 mmHg 69%
02:00 +3°C° 0 mm 4 m/S 757 mmHg 71%
03:00 +1°C° 0 mm 4 m/S 758 mmHg 72%
04:00 +1°C° 0 mm 4 m/S 758 mmHg 73%
05:00 +1°C° 0 mm 4 m/S 758 mmHg 74%
06:00 +3°C° 0 mm 4 m/S 758 mmHg 67%
07:00 +4°C° 0 mm 4 m/S 758 mmHg 61%
08:00 +6°C° 0 mm 5 m/S 759 mmHg 55%
09:00 +7°C° 0 mm 5 m/S 759 mmHg 50%
10:00 +8°C° 0 mm 5 m/S 759 mmHg 45%
11:00 +10°C° 0 mm 5 m/S 759 mmHg 40%
12:00 +10°C° 0 mm 5 m/S 759 mmHg 39%
13:00 +12°C° 0 mm 5 m/S 759 mmHg 38%
14:00 +12°C° 0 mm 5 m/S 758 mmHg 37%
15:00 +12°C° 0 mm 5 m/S 758 mmHg 40%
16:00 +11°C° 0 mm 4 m/S 758 mmHg 43%
17:00 +11°C° 0 mm 4 m/S 758 mmHg 46%
18:00 +8°C° 0 mm 4 m/S 758 mmHg 52%
19:00 +8°C° 0 mm 3 m/S 759 mmHg 58%
20:00 +5°C° 0 mm 3 m/S 759 mmHg 64%
21:00 +4°C° 0 mm 3 m/S 759 mmHg 67%
22:00 +5°C° 0 mm 2 m/S 759 mmHg 71%
23:00 +4°C° 0 mm 2 m/S 759 mmHg 74%

18 April, Sonntag

Zeit Temperatur Niederschläge Wind Luftdruck Luftfeuchtigkeit
00:00 +4°C° 0 mm 2 m/S 759 mmHg 76%
01:00 +3°C° 0 mm 2 m/S 759 mmHg 79%
02:00 +3°C° 0 mm 2 m/S 759 mmHg 81%
03:00 +2°C° 0 mm 2 m/S 760 mmHg 81%
04:00 +2°C° 0 mm 2 m/S 760 mmHg 82%
05:00 +2°C° 0 mm 2 m/S 760 mmHg 82%
06:00 +4°C° 0 mm 2 m/S 760 mmHg 74%
07:00 +5°C° 0 mm 3 m/S 760 mmHg 66%
08:00 +8°C° 0 mm 3 m/S 760 mmHg 58%
09:00 +9°C° 0 mm 3 m/S 760 mmHg 53%
10:00 +10°C° 0 mm 3 m/S 760 mmHg 48%
11:00 +11°C° 0 mm 3 m/S 760 mmHg 43%
12:00 +12°C° 0 mm 3 m/S 760 mmHg 41%
13:00 +12°C° 0 mm 3 m/S 760 mmHg 40%
14:00 +12°C° 0 mm 4 m/S 760 mmHg 39%
15:00 +12°C° 0 mm 3 m/S 760 mmHg 42%
16:00 +11°C° 0 mm 3 m/S 760 mmHg 46%
17:00 +11°C° 0 mm 3 m/S 760 mmHg 49%
18:00 +10°C° 0 mm 3 m/S 760 mmHg 56%
19:00 +8°C° 0 mm 2 m/S 760 mmHg 63%
20:00 +7°C° 0 mm 2 m/S 760 mmHg 70%
21:00 +6°C° 0 mm 2 m/S 760 mmHg 71%
22:00 +6°C° 0 mm 2 m/S 760 mmHg 72%
23:00 +6°C° 0 mm 2 m/S 760 mmHg 74%

19 April, Montag

Zeit Temperatur Niederschläge Wind Luftdruck Luftfeuchtigkeit
00:00 +5°C° 0 mm 2 m/S 760 mmHg 75%
01:00 +5°C° 0 mm 2 m/S 761 mmHg 76%
02:00 +5°C° 0 mm 2 m/S 761 mmHg 77%
03:00 +5°C° 0 mm 2 m/S 761 mmHg 79%
04:00 +5°C° 0 mm 2 m/S 761 mmHg 81%
05:00 +4°C° 0 mm 2 m/S 761 mmHg 83%
06:00 +6°C° 0 mm 2 m/S 761 mmHg 77%
07:00 +7°C° 0 mm 3 m/S 761 mmHg 71%
08:00 +8°C° 0 mm 3 m/S 761 mmHg 66%
09:00 +9°C° 0 mm 3 m/S 761 mmHg 62%
10:00 +10°C° 0 mm 4 m/S 761 mmHg 57%
11:00 +11°C° 0 mm 4 m/S 761 mmHg 53%
12:00 +12°C° 0 mm 4 m/S 761 mmHg 52%
13:00 +12°C° 0 mm 4 m/S 760 mmHg 50%
14:00 +12°C° 0 mm 4 m/S 760 mmHg 49%
15:00 +11°C° 0 mm 4 m/S 760 mmHg 50%
16:00 +11°C° 0 mm 4 m/S 760 mmHg 51%
17:00 +11°C° 0 mm 4 m/S 760 mmHg 51%
18:00 +8°C° 0 mm 4 m/S 760 mmHg 54%
19:00 +7°C° 0 mm 4 m/S 760 mmHg 56%
20:00 +5°C° 0 mm 4 m/S 760 mmHg 58%
21:00 +5°C° 0 mm 3 m/S 760 mmHg 58%
22:00 +4°C° 0 mm 3 m/S 760 mmHg 59%
23:00 +3°C° 0 mm 3 m/S 759 mmHg 59%

20 April, Dienstag

Zeit Temperatur Niederschläge Wind Luftdruck Luftfeuchtigkeit
00:00 +3°C° 0 mm 3 m/S 759 mmHg 61%
01:00 +2°C° 0 mm 3 m/S 759 mmHg 64%
02:00 +2°C° 0 mm 3 m/S 759 mmHg 66%
03:00 +1°C° 0 mm 3 m/S 759 mmHg 66%
04:00 +1°C° 0 mm 3 m/S 759 mmHg 67%
05:00 +1°C° 0 mm 3 m/S 758 mmHg 68%
06:00 +1°C° 0 mm 4 m/S 758 mmHg 62%
07:00 +3°C° 0 mm 4 m/S 758 mmHg 56%
08:00 +5°C° 0 mm 5 m/S 758 mmHg 50%
09:00 +6°C° 0 mm 5 m/S 757 mmHg 46%
10:00 +7°C° 0 mm 6 m/S 757 mmHg 42%
11:00 +8°C° 0 mm 6 m/S 756 mmHg 39%
12:00 +9°C° 0 mm 6 m/S 756 mmHg 38%
13:00 +9°C° 0 mm 6 m/S 755 mmHg 38%
14:00 +10°C° 0 mm 6 m/S 755 mmHg 38%
15:00 +9°C° 0 mm 6 m/S 754 mmHg 40%
16:00 +9°C° 0 mm 6 m/S 754 mmHg 42%
17:00 +8°C° 0 mm 6 m/S 753 mmHg 44%
18:00 +8°C° 0 mm 6 m/S 753 mmHg 44%
19:00 +7°C° 0 mm 6 m/S 752 mmHg 44%
20:00 +7°C° 0 mm 6 m/S 752 mmHg 45%
21:00 +5°C° 0 mm 6 m/S 752 mmHg 48%
22:00 +5°C° 0 mm 6 m/S 751 mmHg 51%
23:00 +4°C° 0 mm 6 m/S 751 mmHg 54%
Mehr zeigen

Wir brauchen deine Erlaubnis

Meteoprog und unser Service Anbieter werden persönliche Daten aufbewahren, so wie Cookies, Geräte Bezeichnung oder ähnliche Technologien von deinem Gerät und Prozess, so wie Persönliche Daten Inhalte und Werbungen, genauso wie social Media und den Verkehr zu analysieren.

  • Aufbewahrung und/oder Zugang zu deiner Geräte Informationen.

    Cookies, Geräte Bezeichnung oder andere Informationen, können aufbewahrt oder Zugang zu deinem Gerät erhalten, für den Grund, der oben angegeben wird.

  • Personalisierte Werbung und Inhalte, Messungen, Einblick in das Publikum und Produkt Entwicklung.

    Werbungen und Inhalte können personalisiert werden, basierend auf ein Profil. Mehr Daten können besser personalisierte Werbungen und Inhalte hinzufügen. Werbung und Inhalte können gezeigt und gemessen werden. Einblicke über das Publikum, welche die Werbung gesehen haben und den Inhalt, können abgeleitet werden. So wie Daten können genutzt werden, um es zu verbessern oder die Benutzer Erfahrung zu verbessern das System und die Software.

Wenn du “Ich stimme zu” klickst, erlaubst du uns, die Cookies zu benutzen die Geräte Bezeichnung, den Web oder ähnliche Technologien zu benutzen. Deine Settings, können in deinem Gerät bei deinem Browser geändert werden.

Für den bestimmten Zweck, berechtigten Interessen beruhen darauf, mehr als auf den Inhalt. Du kannst mehr darüber in unseren Privaten und Cookie Politik lesen.